Location: LDNL
(36.4545°S, 141.6685°E)
Time: 11:20:16
(UTC+10:00)

Explorer 7 - Pass Details

Date: 13 August 2022
Orbit: 482 x 668 km, 50.3° (Epoch: 26 September)

Event Time Altitude Azimuth Distance (km) Brightness Sun altitude
Rises 19:18:47 0° 277° (W) 3,014 12.4 -16.7°
Reaches altitude 10° 19:21:27 10° 266° (W) 2,095 11.0 -17.2°
Maximum altitude 19:25:39 29° 206° (SSW) 1,219 8.7 -18.0°
Enters shadow 19:28:34 16° 155° (SSE) 1,682 9.0 -18.6°
Drops below altitude 10° 19:29:45 10° 145° (SE) 2,041 - -18.9°
Sets 19:32:19 0° 133° (SE) 2,922 - -19.4°
